Casper, WY

7:50 AM MDT on May 25, 2017 (GMT -0600)
Natrona County International

Weather History for KCPR - April, 2013

Change the Weather History Date:

Tuesday, April 16, 2013

  Actual Average Record
Temperature  
Mean Temperature 21 °F 43 °F  
Max Temperature 23 °F 57 °F 80 °F (1994)
Min Temperature 19 °F 29 °F 14 °F (1951)
Degree Days  
Heating Degree Days 44 22  
Month to date heating degree days 479 387  
Since 1 July heating degree days 6490 6760  
Cooling Degree Days 0 0  
Month to date cooling degree days 0 0  
Year to date cooling degree days 0 0  
Moisture  
Dew Point 15 °F    
Average Humidity 76    
Maximum Humidity 84    
Minimum Humidity 68    
Precipitation  
Precipitation 0.59 in 0.05 in 0.84 in (1976)
Month to date precipitation 1.94 0.61  
Year to date precipitation 3.56 2.51  
Snow  
Snow 10.50 in 0.40 in - ()
Month to date snowfall 30.5 6.9  
Since 1 July snowfall 73.7 67.2  
Snow Depth 1.00 in    
Sea Level Pressure  
Sea Level Pressure 30.03 in    
Wind  
Wind Speed 18 mph (NE)    
Max Wind Speed 31 mph    
Max Gust Speed 71 mph    
Visibility 2 miles    
Events Fog , Snow    
T = Trace of Precipitation, MM = Missing Value Source: NWS Daily Summary

Daily Weather History Graph

Daily Weather History Graph

Search for Another Location

Airport or City:

Trip Planner

Search our weather history database for the weather conditions in past years. The results will help you decide how hot, cold, wet, or windy it might be!

Date:

Astronomy

Apr. 16, 2013 Rise Set
Actual Time 6:22 AM MDT 7:49 PM MDT
Civil Twilight 5:52 AM MDT 8:19 PM MDT
Nautical Twilight 5:16 AM MDT 8:55 PM MDT
Astronomical Twilight 4:38 AM MDT 9:33 PM MDT
Moon 10:39 AM MDT (4/16) 12:52 AM MDT (4/16)
Length of Visible Light 14h 26m
Length of Day
13h 27m
Waxing Crescent, 34% of the Moon is Illuminated
Apr 16
Waxing Crescent
Apr 18
First Quarter
Apr 25
Full
May 2
Last Quarter
May 9
New

Hourly Weather History & Observations

Time (MDT) Temp. Windchill Dew Point Humidity Pressure Visibility Wind Dir Wind Speed Gust Speed Precip Events Conditions
12:53 AM 23.0 °F 10.6 °F 14.0 °F 68% 30.08 in 10.0 mi ENE 13.8 mph - N/A   Overcast
1:14 AM 23.0 °F 9.6 °F 12.2 °F 63% 29.97 in 10.0 mi ENE 16.1 mph - N/A   Overcast
1:21 AM 23.0 °F 10.1 °F 12.2 °F 63% 29.97 in 10.0 mi ENE 15.0 mph - N/A   Overcast
1:28 AM 23.0 °F 9.6 °F 12.2 °F 63% 29.97 in 10.0 mi ENE 16.1 mph - N/A   Overcast
1:38 AM 21.2 °F 6.4 °F 12.2 °F 68% 29.97 in 10.0 mi ENE 18.4 mph - N/A   Overcast
1:53 AM 21.9 °F 8.2 °F 12.9 °F 68% 30.08 in 10.0 mi East 16.1 mph - N/A   Overcast
2:13 AM 21.2 °F 7.8 °F 12.2 °F 68% 29.96 in 10.0 mi ENE 15.0 mph - N/A   Overcast
2:45 AM 21.2 °F 7.8 °F 12.2 °F 68% 29.97 in 10.0 mi East 15.0 mph - N/A   Overcast
2:53 AM 21.9 °F 7.8 °F 12.9 °F 68% 30.08 in 10.0 mi East 17.3 mph - N/A   Overcast
3:40 AM 21.2 °F 6.8 °F 14.0 °F 74% 29.97 in 2.5 mi East 17.3 mph - 0.00 in Snow Light Snow
3:50 AM 19.4 °F 4.5 °F 15.8 °F 86% 29.97 in 1.2 mi East 17.3 mph - 0.00 in Snow Light Snow
3:53 AM 19.9 °F 4.8 °F 15.1 °F 81% 30.08 in 1.2 mi East 18.4 mph - 0.00 in Snow Light Snow
4:12 AM 19.4 °F 5.0 °F 15.8 °F 86% 29.96 in 1.0 mi East 16.1 mph - 0.00 in Snow Light Snow
4:43 AM 19.4 °F 5.5 °F 15.8 °F 86% 29.96 in 1.8 mi ENE 15.0 mph - 0.01 in Snow Light Snow
4:50 AM 19.4 °F 6.0 °F 15.8 °F 86% 29.95 in 2.0 mi ENE 13.8 mph - 0.01 in Snow Light Snow
4:53 AM 19.9 °F 6.2 °F 16.0 °F 85% 30.06 in 2.0 mi ENE 15.0 mph - 0.01 in Snow Light Snow
5:20 AM 19.4 °F 5.0 °F 15.8 °F 86% 29.95 in 1.0 mi East 16.1 mph - 0.01 in Snow Light Snow
5:25 AM 19.4 °F 6.0 °F 15.8 °F 86% 29.95 in 0.8 mi ENE 13.8 mph 21.9 mph 0.01 in Snow Light Snow
5:35 AM 19.4 °F 3.6 °F 15.8 °F 86% 29.95 in 1.2 mi ENE 19.6 mph - 0.01 in Snow Light Snow
5:49 AM 19.4 °F 5.0 °F 15.8 °F 86% 29.95 in 2.0 mi ENE 16.1 mph - 0.01 in Snow Light Snow
5:53 AM 19.4 °F 4.1 °F 15.8 °F 86% 29.95 in 2.0 mi ENE 18.4 mph 24.2 mph N/A Snow Light Snow
6:20 AM 19.4 °F 5.0 °F 15.8 °F 86% 29.95 in 2.0 mi ENE 16.1 mph 23.0 mph 0.01 in Snow Light Snow
6:50 AM 19.4 °F 3.6 °F 15.8 °F 86% 29.95 in 0.5 mi ENE 19.6 mph 25.3 mph 0.02 in Fog , Snow Light Snow
6:53 AM 19.0 °F 4.0 °F 15.1 °F 85% 30.08 in 0.5 mi ENE 17.3 mph 25.3 mph 0.02 in Fog , Snow Light Snow
7:07 AM 19.4 °F 4.5 °F 15.8 °F 86% 29.95 in 0.8 mi ENE 17.3 mph - 0.01 in Snow Light Snow
7:40 AM 19.4 °F 3.2 °F 15.8 °F 86% 29.95 in 0.8 mi ENE 20.7 mph 26.5 mph 0.01 in Snow Light Snow
7:53 AM 19.0 °F 3.6 °F 15.1 °F 85% 30.07 in 0.5 mi ENE 18.4 mph - 0.02 in Fog , Snow Snow
8:53 AM 19.0 °F 4.5 °F 15.1 °F 85% 30.06 in 0.5 mi ENE 16.1 mph - 0.01 in Fog , Snow Snow
9:07 AM 19.4 °F 2.8 °F 15.8 °F 86% 29.94 in 0.2 mi ENE 21.9 mph 26.5 mph 0.01 in Snow Heavy Snow
9:15 AM 19.4 °F 3.6 °F 15.8 °F 86% 29.94 in 0.2 mi ENE 19.6 mph - 0.02 in Snow Heavy Snow
9:23 AM 19.4 °F 3.2 °F 15.8 °F 86% 29.93 in 0.5 mi ENE 20.7 mph 27.6 mph 0.02 in Snow Snow
9:53 AM 19.9 °F 3.9 °F 15.1 °F 81% 30.06 in 1.0 mi NE 20.7 mph 29.9 mph 0.02 in Snow Light Snow
10:13 AM 19.4 °F 3.2 °F 14.0 °F 80% 29.93 in 0.8 mi NE 20.7 mph 28.8 mph 0.01 in Snow Light Snow
10:22 AM 19.4 °F 2.1 °F 15.8 °F 86% 29.93 in 0.2 mi NE 24.2 mph 28.8 mph 0.01 in Snow Heavy Snow
10:37 AM 19.4 °F 2.1 °F 15.8 °F 86% 29.93 in 0.2 mi NE 24.2 mph 32.2 mph 0.01 in Fog , Snow Heavy Snow
10:53 AM 19.9 °F 3.5 °F 16.0 °F 85% 30.05 in 0.2 mi NE 21.9 mph - 0.02 in Fog , Snow Snow
11:53 AM 21.0 °F 5.4 °F 17.1 °F 85% 30.03 in 0.5 mi NE 20.7 mph - 0.03 in Fog , Snow Snow
12:07 PM 21.2 °F 4.5 °F 15.8 °F 80% 29.91 in 0.5 mi NE 24.2 mph 32.2 mph 0.00 in Snow Snow
12:37 PM 21.2 °F 3.0 °F 15.8 °F 80% 29.91 in 0.8 mi NE 29.9 mph 35.7 mph 0.00 in Snow Light Snow
12:53 PM 21.0 °F 3.9 °F 16.0 °F 81% 30.04 in 0.8 mi NE 25.3 mph 34.5 mph 0.31 in Snow Light Snow
1:22 PM 21.2 °F 5.6 °F 17.6 °F 86% 29.91 in 0.5 mi NE 20.7 mph 31.1 mph 0.00 in Snow Snow
1:30 PM 21.2 °F 3.5 °F 17.6 °F 86% 29.92 in 0.2 mi NE 27.6 mph 33.4 mph 0.00 in Fog , Snow Heavy Snow
1:42 PM 21.2 °F 3.9 °F 15.8 °F 80% 29.92 in 0.5 mi NE 26.5 mph 32.2 mph 0.00 in Snow Snow
1:53 PM 21.0 °F 4.3 °F 17.1 °F 85% 30.06 in 0.5 mi NE 24.2 mph 31.1 mph 0.00 in Fog , Snow Light Snow
2:10 PM 21.2 °F 3.9 °F 17.6 °F 86% 29.93 in 0.2 mi NE 26.5 mph 34.5 mph 0.01 in Fog , Snow Snow
2:24 PM 21.2 °F 4.2 °F 15.8 °F 80% 29.93 in 0.5 mi NE 25.3 mph 31.1 mph 0.01 in Snow Snow
2:31 PM 21.2 °F 4.2 °F 17.6 °F 86% 29.94 in 0.2 mi NE 25.3 mph 31.1 mph 0.01 in Fog , Snow Snow
2:53 PM 21.0 °F 3.9 °F 16.0 °F 81% 30.08 in 0.5 mi NE 25.3 mph 34.5 mph 0.01 in Snow Snow
3:53 PM 21.0 °F 4.6 °F 16.0 °F 81% 30.12 in 0.8 mi NE 23.0 mph 28.8 mph 0.01 in Snow Light Snow
4:53 PM 21.0 °F 5.0 °F 16.0 °F 81% 30.13 in 0.8 mi NE 21.9 mph 28.8 mph 0.01 in Snow Light Snow
5:19 PM 21.2 °F 5.6 °F 15.8 °F 80% 29.99 in 1.0 mi NE 20.7 mph 27.6 mph 0.09 in Snow Light Snow
5:22 PM 21.2 °F 4.5 °F 15.8 °F 80% 29.99 in 0.8 mi NE 24.2 mph 27.6 mph 0.09 in Snow Light Snow
5:53 PM 19.9 °F 3.9 °F 15.1 °F 81% 30.16 in 0.5 mi NE 20.7 mph - 0.11 in Snow Snow
6:53 PM 19.9 °F 5.7 °F 16.0 °F 85% 30.19 in 0.5 mi NE 16.1 mph - 0.75 in Fog , Snow Snow
7:06 PM 19.4 °F 5.0 °F 15.8 °F 86% 30.05 in 0.2 mi NE 16.1 mph - 0.00 in Fog , Snow Snow
7:24 PM 19.4 °F 5.5 °F 15.8 °F 86% 30.05 in 0.5 mi NE 15.0 mph - 0.00 in Fog , Snow Snow
7:37 PM 19.4 °F 5.5 °F 15.8 °F 86% 30.04 in 0.5 mi NE 15.0 mph - 0.00 in Snow Snow
7:53 PM 19.9 °F 5.7 °F 15.1 °F 81% 30.21 in 0.8 mi NE 16.1 mph - 0.00 in Snow Light Snow
8:36 PM 19.4 °F 5.0 °F 15.8 °F 86% 30.06 in 1.0 mi NNE 16.1 mph - 1.06 in Snow Light Snow
8:53 PM 19.9 °F 6.7 °F 16.0 °F 85% 30.22 in 1.0 mi NNE 13.8 mph - 1.06 in Snow Light Snow
9:16 PM 19.4 °F 5.5 °F 15.8 °F 86% 30.08 in 0.8 mi NNE 15.0 mph - 0.00 in Snow Light Snow
9:37 PM 19.4 °F 6.0 °F 15.8 °F 86% 30.09 in 1.0 mi NE 13.8 mph - 0.00 in Snow Light Snow
9:46 PM 19.4 °F 6.6 °F 15.8 °F 86% 30.09 in 0.8 mi NE 12.7 mph - 0.00 in Snow Light Snow
9:53 PM 19.0 °F 6.1 °F 16.0 °F 88% 30.25 in 0.8 mi NNE 12.7 mph - 0.00 in Snow Light Snow
10:11 PM 19.4 °F 5.0 °F 15.8 °F 86% 30.09 in 1.0 mi NNE 16.1 mph - 0.00 in Snow Light Snow
10:19 PM 19.4 °F 5.5 °F 15.8 °F 86% 30.10 in 0.8 mi NNE 15.0 mph - 0.27 in Snow Light Snow
10:53 PM 19.0 °F 6.1 °F 15.1 °F 85% 30.25 in 0.8 mi NE 12.7 mph - 3.56 in Snow Light Snow
11:10 PM 19.4 °F 5.5 °F 15.8 °F 86% 30.10 in 1.0 mi NNE 15.0 mph - N/A Snow Light Snow
11:46 PM 19.4 °F 6.6 °F 15.8 °F 86% 30.10 in 0.8 mi NNE 12.7 mph - 0.36 in Snow Light Snow
11:53 PM 19.0 °F 6.1 °F 16.0 °F 88% 30.25 in 1.0 mi NNE 12.7 mph - 0.39 in Snow Light Snow